CW3660 Weather Reports


Display with metric or nautical units.
time (UTC)temp
F
wind
direction
speed
MPH
gust
MPH
rain 1hr
in
rain 24hr
in
rain mn
in
humidity
%
barometer
mb
20260510024016 51 158 1.0 2.0 0.00 0.42 0.42 96 1012.4
20260510023015 51 0.0 2.0 0.00 0.42 0.42 96 1012.4
20260510022016 51 0.0 1.0 0.00 0.42 0.42 96 1012.4
20260510021016 51 158 1.0 3.0 0.00 0.42 0.42 96 1012.4
20260510020016 51 158 1.0 3.0 0.00 0.42 0.42 96 1012.5
20260510015016 51 180 1.0 3.0 0.00 0.42 0.42 96 1012.5
20260510014016 50 135 1.0 3.0 0.00 0.42 0.42 95 1012.6
20260510013016 50 0.0 1.0 0.00 0.42 0.42 95 1012.5
20260510012015 50 158 2.0 5.0 0.01 0.42 0.42 95 1012.3
20260510011016 49 135 2.0 8.0 0.02 0.42 0.42 96 1012.1
20260510010016 49 135 2.0 5.0 0.03 0.42 0.42 95 1012.0
20260510005016 49 135 2.0 5.0 0.04 0.42 0.42 95 1012.0
20260510004016 48 158 1.0 5.0 0.06 0.42 0.42 95 1012.2
20260510003016 48 113 1.0 4.0 0.07 0.42 0.42 95 1012.3
20260510002015 48 113 3.0 8.0 0.08 0.41 0.41 95 1012.2
20260510001016 48 135 3.0 7.0 0.08 0.40 0.40 95 1012.3
20260510000016 47 158 2.0 6.0 0.07 0.39 0.39 95 1012.5
20260509235016 47 135 2.0 5.0 0.07 0.38 0.38 95 1012.4
20260509234015 47 135 2.0 4.0 0.06 0.36 0.36 95 1012.7
20260509233015 47 135 1.0 4.0 0.05 0.35 0.35 94 1012.5
20260509232015 47 135 1.0 3.0 0.04 0.33 0.33 94 1012.5
20260509231015 47 135 1.0 4.0 0.03 0.32 0.32 94 1012.3
20260509230015 47 0.0 2.0 0.04 0.32 0.32 94 1012.1
20260509225015 48 0.0 2.0 0.03 0.31 0.31 94 1012.1
20260509224015 48 0.0 4.0 0.03 0.30 0.30 94 1012.2
20260509223015 48 45 1.0 5.0 0.04 0.30 0.30 94 1012.3
20260509222015 48 0 2.0 5.0 0.06 0.29 0.29 94 1012.4
20260509221035 48 23 1.0 3.0 0.09 0.29 0.29 94 1012.4
20260509220035 48 0 1.0 3.0 0.11 0.28 0.28 94 1012.6
20260509215016 48 45 2.0 6.0 0.12 0.28 0.28 94 1012.6
20260509214017 48 338 2.0 7.0 0.14 0.27 0.27 93 1012.6
20260509213017 48 0 3.0 7.0 0.15 0.26 0.26 93 1012.4
20260509212017 49 0 3.0 5.0 0.12 0.23 0.23 93 1012.4
20260509211017 49 23 1.0 4.0 0.09 0.20 0.20 93 1012.3
20260509210017 49 45 2.0 6.0 0.06 0.17 0.17 93 1012.5
20260509205017 49 45 1.0 5.0 0.05 0.16 0.16 92 1012.2
20260509204017 49 45 1.0 6.0 0.02 0.13 0.13 92 1012.5
20260509203017 49 23 3.0 7.0 0.00 0.11 0.11 92 1012.4
20260509202017 49 23 2.0 7.0 0.00 0.11 0.11 92 1012.5
20260509201017 49 45 2.0 8.0 0.00 0.11 0.11 92 1012.5
20260509200038 50 45 2.0 5.0 0.00 0.11 0.11 92 1012.4
20260509195017 50 0 1.0 4.0 0.00 0.11 0.11 92 1012.7
20260509194017 50 0 1.0 6.0 0.00 0.11 0.11 92 1012.5
20260509193057 50 23 3.0 6.0 0.00 0.11 0.11 92 1012.4
20260509192018 50 45 2.0 4.0 0.00 0.11 0.11 92 1012.2
20260509191017 50 0 4.0 7.0 0.00 0.11 0.11 92 1012.0
20260509190017 50 45 2.0 8.0 0.00 0.11 0.11 92 1012.4
20260509185017 50 23 2.0 8.0 0.00 0.11 0.11 92 1012.2
20260509184137 50 23 3.0 6.0 0.01 0.11 0.11 92 1012.7
20260509183017 50 0 2.0 5.0 0.01 0.11 0.11 92 1012.8
20260509182037 50 23 1.0 4.0 0.01 0.11 0.11 91 1013.2
20260509181017 50 0 1.0 5.0 0.01 0.11 0.11 91 1013.4
20260509180017 49 23 2.0 5.0 0.01 0.11 0.11 91 1013.1
20260509175017 49 23 2.0 5.0 0.01 0.11 0.11 90 1013.3
20260509174059 49 0 1.0 6.0 0.00 0.10 0.10 90 1013.5
20260509173017 49 0 1.0 5.0 0.01 0.10 0.10 90 1013.3
20260509172017 49 0 2.0 5.0 0.01 0.10 0.10 90 1013.3
20260509171017 49 23 1.0 4.0 0.02 0.10 0.10 90 1013.9
20260509170017 49 135 1.0 3.0 0.02 0.10 0.10 90 1013.7
20260509165017 48 90 1.0 3.0 0.03 0.10 0.10 90 1013.8
20260509164037 48 135 1.0 3.0 0.04 0.10 0.10 90 1013.9
20260509163017 48 68 1.0 3.0 0.03 0.09 0.09 91 1014.0
20260509162018 48 113 1.0 3.0 0.03 0.09 0.09 90 1014.2
20260509161017 48 90 1.0 3.0 0.02 0.08 0.08 90 1013.9
20260509160037 48 0 1.0 7.0 0.03 0.08 0.08 90 1013.8
20260509155017 47 23 3.0 7.0 0.02 0.07 0.07 89 1013.9
20260509154017 47 23 2.0 5.0 0.02 0.06 0.06 89 1014.1
20260509153018 47 23 1.0 3.0 0.02 0.06 0.06 89 1014.2
20260509152017 47 0 1.0 3.0 0.03 0.06 0.06 89 1014.4
20260509151017 47 0.0 3.0 0.03 0.06 0.06 89 1014.5
20260509150017 47 0.0 1.0 0.03 0.05 0.05 89 1014.6
20260509145017 47 0.0 3.0 0.03 0.05 0.05 89 1014.8
20260509144017 47 0.0 1.0 0.02 0.04 0.04 90 1014.8
20260509143017 46 0.0 2.0 0.03 0.04 0.04 89 1015.0
20260509142016 46 0.0 2.0 0.02 0.03 0.03 89 1015.0
20260509141017 46 0.0 1.0 0.02 0.03 0.03 88 1015.1
20260509140017 46 0.0 3.0 0.02 0.02 0.02 87 1015.2
20260509135037 46 158 1.0 3.0 0.02 0.02 0.02 86 1015.1
20260509134016 46 158 1.0 3.0 0.02 0.02 0.02 86 1014.9
20260509133016 46 0.0 1.0 0.01 0.01 0.01 86 1014.8
20260509132016 46 0.0 2.0 0.01 0.01 0.01 85 1014.6
20260509131016 46 0.0 2.0 0.01 0.01 0.01 85 1014.7
20260509130016 45 0.0 2.0 0.00 0.00 0.00 84 1014.8
20260509125016 45 0.0 2.0 0.00 0.00 0.00 82 1014.8
20260509124016 45 158 2.0 6.0 0.00 0.00 0.00 81 1014.9
20260509123016 45 180 1.0 3.0 0.00 0.00 0.00 80 1015.1
20260509122016 45 0.0 2.0 0.00 0.00 0.00 79 1014.9
20260509121016 45 0.0 2.0 0.00 0.00 0.00 79 1015.0
20260509120016 44 0.0 0.0 0.00 0.00 0.00 80 1015.0
20260509115016 43 0.0 3.0 0.00 0.00 0.00 81 1015.1
20260509114016 43 180 1.0 3.0 0.00 0.00 0.00 83 1015.3
20260509113016 42 180 2.0 4.0 0.00 0.00 0.00 85 1015.1
20260509112016 41 0.0 3.0 0.00 0.00 0.00 87 1014.9
20260509111016 40 0.0 3.0 0.00 0.00 0.00 87 1015.0
20260509110016 40 0.0 1.0 0.00 0.00 0.00 88 1014.9
20260509105016 39 0.0 0.0 0.00 0.00 0.00 88 1015.0
20260509104016 39 0.0 0.0 0.00 0.00 0.00 88 1015.0
20260509103016 39 0.0 0.0 0.00 0.00 0.00 88 1014.9
20260509102016 38 0.0 0.0 0.00 0.00 0.00 87 1015.0
20260509101016 38 0.0 0.0 0.00 0.00 0.00 87 1014.6
20260509100016 38 0.0 0.0 0.00 0.00 0.00 86 1014.7
20260509095016 38 0.0 0.0 0.00 0.00 0.00 86 1014.4
20260509094016 38 0.0 0.0 0.00 0.00 0.00 86 1014.4
20260509093016 38 0.0 0.0 0.00 0.00 0.00 86 1014.2
20260509092016 38 0.0 0.0 0.00 0.00 0.00 86 1014.1
20260509091036 38 0.0 0.0 0.00 0.00 0.00 85 1014.1
20260509090016 38 0.0 1.0 0.00 0.00 0.00 85 1014.0
20260509085016 38 0.0 0.0 0.00 0.00 0.00 84 1014.1
20260509084016 39 0.0 0.0 0.00 0.00 0.00 83 1014.0
20260509083016 39 0.0 0.0 0.00 0.00 0.00 83 1013.8
20260509082036 39 0.0 0.0 0.00 0.00 0.00 83 1013.8
20260509081016 39 0.0 1.0 0.00 0.00 0.00 82 1014.0
20260509080056 39 0.0 2.0 0.00 0.00 0.00 82 1014.1
20260509075016 39 203 1.0 3.0 0.00 0.00 0.00 81 1014.2
20260509074016 40 0.0 3.0 0.00 0.00 0.00 80 1014.0
20260509073016 40 0.0 0.0 0.00 0.00 0.00 79 1013.8
20260509072016 40 0.0 0.0 0.00 0.00 0.00 78 1013.9
20260509071016 41 0.0 0.0 0.00 0.00 0.00 78 1013.8
20260509070015 41 0.0 0.0 0.00 0.00 0.00 77 1013.8
20260509065036 41 0.0 0.0 0.00 0.00 0.00 75 1013.8
20260509064016 42 0.0 0.0 0.00 0.00 0.00 75 1013.7
20260509063036 42 0.0 0.0 0.00 0.00 0.00 75 1013.6
20260509062016 42 0.0 0.0 0.00 0.00 0.00 74 1013.6
20260509061036 42 0.0 0.0 0.00 0.00 0.00 73 1013.7
20260509060016 43 0.0 0.0 0.00 0.00 0.00 72 1013.7
20260509055016 43 0.0 0.0 0.00 0.00 0.00 70 1013.7
20260509054016 44 0.0 0.0 0.00 0.00 0.00 69 1013.9
20260509053015 44 0.0 0.0 0.00 0.00 0.00 68 1013.8
20260509052036 44 0.0 0.0 0.00 0.00 0.00 67 1013.6
20260509051015 45 0.0 0.0 0.00 0.00 0.00 67 1013.6
20260509050016 45 0.0 0.0 0.00 0.00 0.00 66 1013.6
20260509045015 45 0.0 0.0 0.00 0.00 0.00 65 1013.6
20260509044015 45 0.0 0.0 0.00 0.00 0.00 65 1013.6
20260509043016 46 0.0 0.0 0.00 0.00 0.00 64 1013.6
20260509042015 46 0.0 0.0 0.00 0.00 0.00 63 1013.5
20260509041016 46 0.0 0.0 0.00 0.00 0.00 63 1013.4
20260509040016 46 0.0 1.0 0.00 0.00 0.00 62 1013.2
20260509035016 47 0.0 1.0 0.00 0.00 0.00 62 1013.2
20260509034016 47 0.0 3.0 0.00 0.00 0.00 62 1013.2
20260509033016 47 0.0 2.0 0.00 0.00 0.00 61 1013.2
20260509032036 47 0.0 1.0 0.00 0.00 0.00 60 1013.1
20260509031016 48 0.0 2.0 0.00 0.00 0.00 59 1013.0
20260509030017 48 0.0 1.0 0.00 0.00 0.00 59 1012.9
20260509025016 48 0.0 2.0 0.00 0.00 0.00 58 1012.9